Location: Bremen
(53.0793°N, 8.8017°E)
Time: 19:46:23
(UTC+01:00)

Tiros 1 - Pass Details

Date: 10 December 2021
Orbit: 629 x 664 km, 48.4° (Epoch: 18 January)

Event Time Altitude Azimuth Distance (km) Brightness Sun altitude
Rises 18:58:02 0° 255° (WSW) 2,920 11.9 -24.1°
Reaches altitude 10° 19:00:24 10° 250° (WSW) 2,016 10.7 -24.5°
Enters shadow 19:04:45 48° 181° (S) 839 7.7 -25.1°
